Location: Monrovia
(34.7865°N, 86.7139°W)
Time: 23:29:35
(UTC+00:00)

COSMOS 2428 - Pass Details

Date: 14 July 2020
Orbit: 844 x 859 km, 70.9° (Epoch: 12 August)

Event Time Altitude Azimuth Distance (km) Brightness Sun altitude
Rises 01:21:25 0° 194° (SSW) 3,385 5.7 -4.5°
Reaches altitude 10° 01:23:51 10° 192° (SSW) 2,453 4.9 -4.9°
Maximum altitude 01:29:27 72° 109° (ESE) 887 2.7 -5.9°
Drops below altitude 10° 01:35:06 10° 26° (NNE) 2,470 5.2 -6.9°
Sets 01:37:33 0° 24° (NNE) 3,411 6.0 -7.3°
